Skip Page Navigation
NASA JPL Caltech
NASA Logo - Jet Propulsion Laboratory + View the NASA Portal
+ Near-Earth Object (NEO) Program
Search JPL
JPL Home Earth Solar System Stars & Galaxies Technology
JPL Solar System Dynamics
BODIES ORBITS EPHEMERIDES TOOLS PHYSICAL DATA DISCOVERY FAQ SITE MAP
JPL Small-Body Database Browser
Search: [ help ]  
348314 (2005 BC)
Classification: Apollo [NEO, PHA]          SPK-ID: 2348314
Ephemeris | Orbit Diagram | Orbital Elements | Physical Parameters | Discovery Circumstances | Close-Approach Data ]

[ hide orbit diagram ]
Orbit Diagram
Note: Make sure you have Java enabled on your browser to see the applet. This applet is provided as a 3D orbit visualization tool. The applet was implemented using 2-body methods, and hence should not be used for determining accurate long-term trajectories (over several years or decades) or planetary encounter circumstances. For accurate long-term ephemerides, please instead use our Horizons system.
Orbit Viewer

Additional Notes: the orbits shown in the applet are color coded. The planets are white lines, and the asteroid/comet is a blue line. The bright white line indicates the portion of the orbit that is above the ecliptic plane, and the darker portion is below the ecliptic plane. Likewise for the asteroid/comet orbit, the light blue indicates the portion above the ecliptic plane, and the dark blue the portion below the ecliptic plane.

Orbit Viewer applet originally written and kindly provided by Osamu Ajiki (AstroArts), and further modified by Ron Baalke (JPL).


Orbital Elements at Epoch 2456400.5 (2013-Apr-18.0) TDB
Reference: JPL 56 (heliocentric ecliptic J2000)
 Element Value Uncertainty (1-sigma)   Units 
e .2780170772607373 9.4222e-08  
a 1.189551290371074 1.2465e-08 AU
q .8588357173703696 1.1337e-07 AU
i 30.1244785778937 2.0205e-05 deg
node 292.4930324336383 7.0804e-06 deg
peri 84.19439521853845 2.4813e-05 deg
M 173.4209777861882 3.3825e-05 deg
tp 2456172.217660172505
(2012-Sep-01.71766017)
4.1411e-05 JED
period 473.885243798016
1.30
7.4486e-06
2.039e-08
d
yr
n .7596775901159791 1.1941e-08 deg/d
Q 1.520266863371779 1.5931e-08 AU
  Orbit Determination Parameters
   # obs. used (total)      372  
   data-arc span      2878 days (7.88 yr)  
   first obs. used      2005-01-16  
   last obs. used      2012-12-03  
   planetary ephem.      DE405  
   SB-pert. ephem.      SB405-CPV-2  
   condition code      0  
   fit RMS      .5529  
   data source      ORB  
   producer      Otto Matic  
   solution date      2013-Apr-29 15:41:54  

Additional Information
 Earth MOID = .0452738 AU 
 T_jup = 5.169 
[ show covariance matrix ]

Ephemeris | Orbit Diagram | Orbital Elements | Physical Parameters | Discovery Circumstances | Close-Approach Data ]

Physical Parameter Table
Parameter Symbol Value Units Sigma Reference Notes
absolute magnitude H 17.882 mag .49371 56 autocmod 2.5c

348314 (2005 BC)          Discovered 2005-Jan-16 by CSS at Catalina (703)
Reference: 20121228/Numbers.arcLast Updated: 2013-01-02

[ show close-approach data ]
Ephemeris | Orbit Diagram | Orbital Elements | Physical Parameters | Discovery Circumstances | Close-Approach Data ]
ABOUT SSD CREDITS/AWARDS PRIVACY/COPYRIGHT GLOSSARY LINKS
FirstGov 2013-May-26 00:28 UT
(server date/time)  
NASA Home Page
Site Manager:   Donald K. Yeomans
Webmaster  Alan B. Chamberlin